Radioactive Concentration measured by Seawater Radiation Monitor near Fukushima Daiichi Nuclear Power Station
Date,Time,Cs137(Bq/L),Cs134(Bq/L),Total β(Bq/L)
2017/10/01,00:00,0.59,ND,ND
2017/10/01,00:10,0.58,ND,ND
2017/10/01,00:20,0.61,ND,ND
2017/10/01,00:30,0.61,ND,ND
2017/10/01,00:40,0.59,ND,ND
2017/10/01,00:50,0.59,ND,ND
2017/10/01,01:00,0.59,ND,ND
2017/10/01,01:10,0.57,ND,ND
2017/10/01,01:20,0.57,ND,ND
2017/10/01,01:30,0.54,ND,ND
2017/10/01,01:40,0.53,ND,ND
2017/10/01,01:50,0.55,ND,ND
2017/10/01,02:00,0.55,ND,ND
2017/10/01,02:10,0.53,0.026,ND
2017/10/01,02:20,0.54,0.034,ND
2017/10/01,02:30,0.58,0.036,ND
2017/10/01,02:40,0.62,0.029,ND
2017/10/01,02:50,0.66,ND,ND
2017/10/01,03:00,0.69,ND,ND
2017/10/01,03:10,0.64,0.029,ND
2017/10/01,03:20,0.61,0.032,ND
2017/10/01,03:30,0.61,0.030,ND
2017/10/01,03:40,0.62,0.036,ND
2017/10/01,03:50,0.65,0.034,ND
2017/10/01,04:00,0.68,0.046,ND
2017/10/01,04:10,0.71,0.047,ND
2017/10/01,04:20,0.75,0.028,ND
2017/10/01,04:30,0.79,ND,ND
2017/10/01,04:40,0.79,ND,ND
2017/10/01,04:50,0.87,ND,ND
2017/10/01,05:00,0.81,ND,ND
2017/10/01,05:10,0.69,ND,ND
2017/10/01,05:20,0.67,ND,ND
2017/10/01,05:30,0.63,0.030,ND
2017/10/01,05:40,0.64,0.031,ND
2017/10/01,05:50,0.63,0.039,ND
2017/10/01,06:00,0.67,0.032,ND
2017/10/01,06:10,0.66,0.043,ND
2017/10/01,06:20,0.64,0.048,ND
2017/10/01,06:30,0.64,0.033,ND
2017/10/01,06:40,0.62,0.028,ND
2017/10/01,06:50,0.59,0.032,ND
2017/10/01,07:00,0.69,ND,ND
2017/10/01,07:10,0.68,ND,ND
2017/10/01,07:20,0.65,ND,ND
2017/10/01,07:30,0.65,ND,ND
2017/10/01,07:40,0.62,ND,ND
2017/10/01,07:50,0.61,ND,ND
2017/10/01,08:00,0.48,ND,ND
2017/10/01,08:10,0.45,ND,ND
2017/10/01,08:20,0.48,ND,ND
2017/10/01,08:30,0.45,ND,ND
2017/10/01,08:40,0.46,ND,ND
2017/10/01,08:50,0.55,ND,ND
2017/10/01,09:00,0.56,ND,ND
2017/10/01,09:10,0.57,ND,ND
2017/10/01,09:20,0.52,ND,ND
2017/10/01,09:30,0.53,ND,ND
2017/10/01,09:40,0.49,ND,ND
2017/10/01,09:50,0.39,ND,ND
2017/10/01,10:00,0.39,ND,ND
2017/10/01,10:10,0.36,ND,ND
2017/10/01,10:20,0.36,ND,ND
2017/10/01,10:30,0.35,ND,ND
2017/10/01,10:40,0.37,ND,ND
2017/10/01,10:50,0.40,ND,ND
2017/10/01,11:00,0.39,ND,ND
2017/10/01,11:10,0.41,ND,ND
2017/10/01,11:20,0.43,ND,ND
2017/10/01,11:30,0.54,ND,ND
2017/10/01,11:40,0.46,ND,ND
2017/10/01,11:50,0.45,ND,ND
2017/10/01,12:00,0.45,ND,ND
2017/10/01,12:10,0.44,ND,ND
2017/10/01,12:20,0.43,ND,ND
2017/10/01,12:30,0.43,ND,ND
2017/10/01,12:40,0.42,ND,ND
2017/10/01,12:50,0.43,ND,ND
2017/10/01,13:00,0.42,ND,ND
2017/10/01,13:10,0.40,ND,ND
2017/10/01,13:20,0.40,ND,ND
2017/10/01,13:30,0.39,ND,ND
2017/10/01,13:40,0.36,ND,ND
2017/10/01,13:50,0.36,ND,ND
2017/10/01,14:00,0.39,ND,ND
2017/10/01,14:10,0.38,ND,ND
2017/10/01,14:20,0.39,ND,ND
2017/10/01,14:30,0.39,ND,ND
2017/10/01,14:40,0.43,ND,ND
2017/10/01,14:50,0.42,ND,ND
2017/10/01,15:00,0.41,ND,ND
2017/10/01,15:10,0.42,ND,ND
2017/10/01,15:20,0.42,ND,ND
2017/10/01,15:30,0.42,ND,ND
2017/10/01,15:40,0.39,ND,ND
2017/10/01,15:50,0.40,ND,ND
2017/10/01,16:00,0.42,ND,ND
2017/10/01,16:10,0.40,ND,ND
2017/10/01,16:20,0.41,ND,ND
2017/10/01,16:30,0.40,ND,ND
2017/10/01,16:40,0.41,ND,ND
2017/10/01,16:50,0.40,ND,ND
2017/10/01,17:00,0.40,ND,ND
2017/10/01,17:10,0.42,ND,ND
2017/10/01,17:20,0.42,ND,ND
2017/10/01,17:30,0.45,ND,ND
2017/10/01,17:40,0.44,ND,ND
2017/10/01,17:50,0.39,0.026,ND
2017/10/01,18:00,0.42,ND,ND
2017/10/01,18:10,0.42,ND,ND
2017/10/01,18:20,0.38,0.026,ND
2017/10/01,18:30,0.40,ND,ND
2017/10/01,18:40,0.41,ND,ND
2017/10/01,18:50,0.41,ND,ND
2017/10/01,19:00,0.43,ND,ND
2017/10/01,19:10,0.43,ND,ND
2017/10/01,19:20,0.45,ND,ND
2017/10/01,19:30,0.47,ND,ND
2017/10/01,19:40,0.48,ND,ND
2017/10/01,19:50,0.50,ND,ND
2017/10/01,20:00,0.51,ND,ND
2017/10/01,20:10,0.54,ND,ND
2017/10/01,20:20,0.55,ND,ND
2017/10/01,20:30,0.58,ND,ND
2017/10/01,20:40,0.63,ND,ND
2017/10/01,20:50,0.64,ND,ND
2017/10/01,21:00,0.67,ND,ND
2017/10/01,21:10,0.78,ND,ND
2017/10/01,21:20,0.81,ND,ND
2017/10/01,21:30,0.84,ND,ND
2017/10/01,21:40,0.83,ND,ND
2017/10/01,21:50,0.84,ND,ND
2017/10/01,22:00,0.72,0.038,ND
2017/10/01,22:10,0.73,0.042,ND
2017/10/01,22:20,0.72,0.041,ND
2017/10/01,22:30,0.72,0.047,ND
2017/10/01,22:40,0.73,0.042,ND
2017/10/01,22:50,0.73,0.053,ND
2017/10/01,23:00,0.70,0.057,ND
2017/10/01,23:10,0.70,0.053,ND
2017/10/01,23:20,0.68,0.059,ND
2017/10/01,23:30,0.70,0.048,ND
2017/10/01,23:40,0.70,0.049,ND
2017/10/01,23:50,0.70,0.044,ND
